Location: Cabeza Gorda
(40.0667°N, 4.9667°W)
Time: 20:13:19
(UTC+00:00)

Timation 2 Rocket - Pass Details

Date: 15 January 2026
Orbit: 906 x 1072 km, 70.0° (Epoch: 11 February)

Event Time Altitude Azimuth Distance (km) Brightness Sun altitude
Rises 06:44:24 0° 225° (SW) 3,798 6.8 -10.6°
Reaches altitude 10° 06:47:12 10° 232° (SW) 2,828 6.1 -10.1°
Maximum altitude 06:53:24 41° 302° (WNW) 1,417 4.4 -9.0°
Drops below altitude 10° 06:59:24 10° 12° (NNE) 2,733 6.3 -7.9°
Sets 07:02:05 0° 19° (NNE) 3,658 7.0 -7.5°
